Regional Weather Roundup
Issued by NWS

Home | Current Version | Previous Version | Text Only | Print | Product List | Glossary On
Versions: 1 2 3 4 5 6 7 8 9 10 11 12 13 14 15 16 17 18 19 20 21 22 23 24 25 26 27 28 29 30 31 32 33 34 35 36 37 38 39 40 41 42 43 44 45 46 47 48 49 50
000
ASUS42 KKEY 252310
RWRKEY

FLORIDA REGIONAL WEATHER ROUNDUP FOR THE FLORIDA KEYS
NATIONAL WEATHER SERVICE KEY WEST FLORIDA
700 PM EDT FRI JUL 25 2014

...SOUTH FLORIDA AND THE KEYS...

CITY           SKY/WX    TMP DP  RH WIND       PRES   REMARKS
FORT MYERS     CLOUDY    78  75  90 E5        30.03F
SW REGIONAL AP CLOUDY    78  73  84 CALM      30.04S
NAPLES         PTSUNNY   82  75  79 N3        30.03S
MIAMI          MOSUNNY   87  76  69 SE9       30.04R HX  97
WEST KENDALL   PTSUNNY   89  75  63 E10       30.04R HX  99
HOMESTEAD      MOSUNNY   86  77  75 E5        30.04R HX  97
MARATHON       MOSUNNY   89  77  67 SE6       30.03R HX 101
BOCA CHICA NAS MOSUNNY   88  76  67 SE6       30.03R HX  99
KEY WEST INTL  SUNNY     88  76  67 SE6       30.04R HX  99

...INTERNATIONAL WEATHER...

CITY           SKY/WX    TMP DP  RH WIND       PRES   REMARKS
NASSAU BAHAMAS MOSUNNY   86  72  62 SE7       30.07S HX  92
CANCUN MEXICO  PTSUNNY   88  77  70 E10       30.00R HX 100
COZUMEL MEXICO MOSUNNY   84  77  79 E14       29.99S HX  94

ADJACENT COASTAL WATERS...

STATION/POSITION TIME  SKY/WX   TEMP    WIND        PRES    WAVE
                                AIR SEA DIR/SP/G            HT/PER
                 (UTC)          (F)     (DEG/KT/KT) (MB)    (FT/S)
PULASKI SHOAL LI 2300            87      20/  1/  2 1016.9R
SAND KEY         2300            86     120/  4/  5 1017.0R
SOMBRERO KEY     2300            88      70/  6/  6 1017.9R
LONG KEY         2156            88 90  160/  7/  8 1017.4F
MOLASSES REEF    2300            85 86  120/  7/  8 1017.0R
FOWEY ROCKS      2300            85 87  130/  9/ 10 1017.5R
Buoy 42080       NOT AVBL

$$



USA.gov is the U.S. government's official web portal to all federal, state and local government web resources and services.